{"data":{"norad_id":28378,"epoch":"2026-09-19T21:34:32.328192Z","epoch_age_seconds":66274,"freshness":"FRESH","line1":"1 28378U 04027A   26262.89898528 -.00000053  00000+0  00000+0 0  9993","line2":"2 28378   3.5250  78.1893 0003079  84.1693  48.9876  1.00272669 42215","mean_motion":1.00272669,"eccentricity":0.0003079,"inclination_deg":3.525,"raan_deg":78.1893,"arg_perigee_deg":84.1693,"mean_anomaly_deg":48.9876,"bstar":0,"rev_number":4221,"period_min":1436.0842434542,"perigee_km":35773.364701053,"apogee_km":35799.32959039,"semimajor_km":42164.484145721,"source":"CELESTRAK","updated_at":"2026-09-20T09:00:35.123678Z"}}